FW5215 Weather Reports


time (UTC)temp
C
wind
direction
speed
KPH
gust
KPH
rain 1hr
cm
rain 24hr
cm
rain mn
cm
humidity
%
barometer
mb
20260503004507 16 202 1.6 8.0 0.00 0.00 0.00 44 1007.2
20260503003004 16 199 0.0 4.8 0.00 0.00 0.00 47 1007.3
20260503001605 16 228 1.6 8.0 0.00 0.00 0.00 46 1007.6
20260503000014 16 217 1.6 8.0 0.00 0.00 0.00 45 1007.8
20260502234513 16 202 1.6 8.0 0.00 0.00 0.00 44 1007.9
20260502233014 16 196 1.6 8.0 0.00 0.00 0.00 44 1008.1
20260502231514 16 192 3.2 8.0 0.00 0.00 0.00 45 1008.3
20260502230012 16 265 4.8 12.9 0.00 0.00 0.00 41 1008.5
20260502224510 17 248 4.8 9.7 0.00 0.00 0.00 41 1008.7
20260502223006 17 271 4.8 14.5 0.00 0.00 0.00 41 1008.8
20260502221511 17 151 3.2 14.5 0.00 0.00 0.00 40 1009.1
20260502220013 16 219 6.4 14.5 0.00 0.00 0.00 41 1009.2
20260502214505 16 177 6.4 12.9 0.00 0.00 0.00 40 1009.4
20260502213105 16 271 6.4 11.3 0.00 0.00 0.00 45 1009.7
20260502211520 16 254 4.8 11.3 0.00 0.00 0.00 41 1009.9
20260502210011 16 203 6.4 16.1 0.00 0.00 0.00 42 1010.1
20260502204509 16 214 6.4 12.9 0.00 0.00 0.00 41 1010.3
20260502203007 16 283 6.4 12.9 0.00 0.00 0.00 43 1010.5
20260502201505 16 269 4.8 14.5 0.00 0.00 0.00 40 1010.8
20260502200105 16 259 4.8 11.3 0.00 0.00 0.00 42 1011.1
20260502194514 16 236 4.8 16.1 0.00 0.00 0.00 41 1011.3
20260502193014 16 249 4.8 11.3 0.00 0.00 0.00 41 1011.5
20260502191508 15 248 4.8 12.9 0.00 0.00 0.00 42 1011.9
20260502190011 15 217 3.2 11.3 0.00 0.00 0.00 41 1012.3
20260502184512 15 286 3.2 14.5 0.00 0.00 0.00 40 1012.5
20260502183007 14 278 8.0 14.5 0.00 0.00 0.00 39 1012.7
20260502181505 16 247 6.4 16.1 0.00 0.00 0.00 38 1012.8
20260502163008 15 253 4.8 12.9 0.00 0.00 0.00 36 1014.6
20260502161505 15 267 4.8 12.9 0.00 0.00 0.00 39 1014.8
20260502160108 14 242 3.2 8.0 0.00 0.00 0.00 39 1015.0
20260502123006 2 278 0.0 3.2 0.00 0.00 0.00 77 1016.3
20260502121508 1 242 0.0 3.2 0.00 0.00 0.00 81 1016.3
20260502120115 0 247 0.0 1.6 0.00 0.00 0.00 82 1016.3
20260502114510 0 247 0.0 3.2 0.00 0.00 0.00 84 1016.5
20260502113006 -1 186 0.0 3.2 0.00 0.00 0.00 82 1016.3
20260502111604 -1 180 0.0 0.0 0.00 0.00 0.00 80 1016.2
20260502110013 -1 180 0.0 3.2 0.00 0.00 0.00 80 1016.2
20260502104530 -1 184 0.0 1.6 0.00 0.00 0.00 79 1016.2
20260502103008 -1 184 0.0 1.6 0.00 0.00 0.00 79 1016.1
20260502101505 -1 184 0.0 3.2 0.00 0.00 0.00 80 1016.1
20260502091514 -1 103 0.0 0.0 0.00 0.00 0.00 77 1016.2
20260502070014 0 103 0.0 1.6 0.00 0.00 0.00 78 1016.6
20260502064510 0 103 0.0 1.6 0.00 0.00 0.00 76 1016.7
20260502063005 0 103 0.0 0.0 0.00 0.00 0.00 76 1016.8
20260502061605 0 103 0.0 0.0 0.00 0.00 0.00 78 1016.7
20260502060011 0 103 0.0 0.0 0.00 0.00 0.00 77 1016.7
20260502054515 0 103 0.0 0.0 0.00 0.00 0.00 76 1016.8
20260502053007 1 103 0.0 1.6 0.00 0.00 0.00 74 1016.8
20260502051702 1 103 0.0 1.6 0.00 0.00 0.00 73 1016.6
20260502050013 1 103 1.6 3.2 0.00 0.00 0.00 68 1016.6
20260502044511 1 103 0.0 3.2 0.00 0.00 0.00 65 1016.7
20260502043007 2 103 0.0 0.0 0.00 0.00 0.00 65 1016.6
20260502041508 3 103 0.0 1.6 0.00 0.00 0.00 63 1016.5
20260502040008 3 103 0.0 0.0 0.00 0.00 0.00 66 1016.6
20260502034507 3 103 0.0 1.6 0.00 0.00 0.00 64 1016.6
20260502033004 3 103 0.0 0.0 0.00 0.00 0.00 65 1016.6
20260502031612 3 103 0.0 0.0 0.00 0.00 0.00 60 1016.6
20260502030011 4 103 0.0 1.6 0.00 0.00 0.00 65 1016.6
20260502024512 4 103 0.0 1.6 0.00 0.00 0.00 63 1016.6
20260502023010 4 103 0.0 3.2 0.00 0.00 0.00 57 1016.5
20260502021507 5 113 0.0 1.6 0.00 0.00 0.00 54 1016.4
20260502020008 6 113 0.0 1.6 0.00 0.00 0.00 53 1016.3
20260502014605 7 113 0.0 1.6 0.00 0.00 0.00 49 1016.3
20260502013013 8 113 0.0 1.6 0.00 0.00 0.00 46 1016.1
20260502011512 9 113 0.0 3.2 0.00 0.00 0.00 47 1016.0
20260502010011 10 113 0.0 3.2 0.00 0.00 0.00 40 1016.0